User: anonymous   Login
Location: Azul
(36.7830°S, 59.8500°W)
Time: 08:20:11
(UTC-03:00)
Language:

NANOSAT C BR1 - Orbit

View from above orbital plane
View from above orbital plane
View from above satellite
View from above satellite

Ground track
Ground track

The orbit data is extracted from the following two-line orbital elements,

1 40024U 14033Q   24261.17928794  .00055434  00000-0  37234-2 0  9995
2 40024  98.0719 237.3300 0005048 187.9466 172.1681 15.06558910557601
Epoch (UTC): 17 September 2024 04:18:10
Eccentricity: 0.0005048
inclination: 98.0719°
perigee height: 543 km
apogee height: 550 km
right ascension of ascending node: 237.3300°
argument of perigee: 187.9466°
revolutions per day: 15.06558910
mean anomaly at epoch: 172.1681°
orbit number at epoch: 55760

The dashed part of the orbit path shows where the satellite is in the earth's shadow,  

DLR